FW0273 Weather Reports


time (UTC)temp
F
wind
direction
speed
knots
gust
knots
rain 1hr
in
rain 24hr
in
rain mn
in
humidity
%
barometer
mb
20260509065247 70 231 0.9 1.7 0.00 0.33 0.00 88 1010.9
20260509064306 69 210 1.7 1.7 0.00 0.33 0.00 88 1010.5
20260509063245 69 125 1.7 1.7 0.00 0.33 0.00 88 1010.5
20260509062253 69 125 1.7 1.7 0.00 0.33 0.00 88 1010.5
20260509061312 69 110 1.7 2.6 0.00 0.33 0.00 87 1010.8
20260509060251 70 0.0 0.9 0.00 0.33 0.00 87 1011.6
20260509055249 70 0.0 0.9 0.00 0.33 0.00 87 1011.6
20260509054248 70 0.0 0.0 0.00 0.33 0.00 87 1011.7
20260509053246 70 352 0.9 1.7 0.00 0.33 0.00 86 1012.0
20260509052245 70 4 0.9 3.5 0.00 0.33 0.00 86 1012.0
20260509051244 70 16 1.7 3.5 0.00 0.33 0.00 85 1012.1
20260509050252 70 132 0.9 3.5 0.03 0.33 0.33 85 1010.5
20260509045251 70 132 0.9 3.5 0.03 0.33 0.33 85 1010.5
20260509044310 70 0.0 0.9 0.03 0.33 0.33 84 1010.6
20260509043249 71 205 2.6 3.5 0.03 0.33 0.33 84 1010.2
20260509042248 71 201 2.6 8.7 0.03 0.33 0.33 83 1010.2
20260509041306 72 192 2.6 8.7 0.03 0.33 0.33 81 1010.2
20260509040245 72 144 0.9 0.9 0.00 0.30 0.30 79 1011.6
20260509035244 72 144 0.9 0.9 0.00 0.30 0.30 79 1011.6
20260509034252 72 0.0 0.0 0.00 0.30 0.30 79 1011.6
20260509033251 72 0.0 0.9 0.00 0.30 0.30 79 1011.0
20260509032249 72 0.0 0.9 0.00 0.30 0.30 79 1011.0
20260509031248 72 0.0 0.0 0.00 0.30 0.30 79 1011.0
20260509030247 72 144 0.9 0.9 0.00 0.30 0.30 79 1010.7
20260509025246 72 129 1.7 3.5 0.00 0.30 0.30 79 1010.5
20260509024244 72 122 3.5 3.5 0.00 0.30 0.30 79 1010.1
20260509023253 72 111 3.5 5.2 0.00 0.30 0.30 78 1009.8
20260509022312 72 110 2.6 5.2 0.00 0.30 0.30 78 1009.9
20260509021251 72 105 0.9 3.5 0.00 0.30 0.30 78 1009.9
20260509020249 72 140 1.7 2.6 0.00 0.30 0.30 77 1009.8
20260509015309 72 128 1.7 2.6 0.00 0.30 0.30 77 1009.7
20260509014247 73 105 1.7 2.6 0.00 0.30 0.30 77 1009.6
20260509013245 73 0.0 1.7 0.00 0.30 0.30 76 1009.5
20260509012244 73 133 0.0 5.2 0.00 0.30 0.30 75 1009.5
20260509011253 73 133 0.9 5.2 0.00 0.30 0.30 74 1009.5
20260509010252 74 111 5.2 7.0 0.00 0.30 0.30 73 1009.1
20260509005250 74 118 5.2 7.0 0.00 0.30 0.30 73 1009.0
20260509004310 74 134 4.3 4.3 0.00 0.30 0.30 72 1008.9
20260509003248 74 116 2.6 6.1 0.00 0.30 0.30 71 1008.9
20260509002307 74 115 2.6 6.1 0.00 0.30 0.30 71 1008.9
20260509001245 75 112 1.7 4.3 0.00 0.30 0.30 71 1009.0
20260509000244 76 117 2.6 4.3 0.00 0.30 0.30 70 1009.4
20260508235252 76 119 2.6 5.2 0.00 0.30 0.30 69 1009.4
20260508234251 76 122 3.5 5.2 0.00 0.30 0.30 69 1009.4
20260508233250 77 128 2.6 6.1 0.00 0.30 0.30 68 1009.4
20260508232249 77 126 2.6 6.1 0.00 0.30 0.30 68 1009.5
20260508231247 77 123 2.6 3.5 0.00 0.30 0.30 69 1009.6
20260508230246 77 127 3.5 4.3 0.00 0.30 0.30 68 1009.5
20260508225245 78 128 3.5 4.3 0.00 0.30 0.30 67 1009.5
20260508224244 79 129 2.6 3.5 0.00 0.30 0.30 65 1009.5
20260508223252 80 92 1.7 3.5 0.00 0.30 0.30 65 1009.4
20260508222251 79 127 1.7 5.2 0.00 0.30 0.30 66 1009.3
20260508221250 79 178 2.6 5.2 0.00 0.30 0.30 66 1009.2
20260508220249 79 90 1.7 8.7 0.00 0.30 0.30 65 1009.2
20260508215247 79 111 2.6 8.7 0.00 0.30 0.30 65 1009.2
20260508214246 79 128 4.3 7.8 0.00 0.30 0.30 66 1009.4
20260508213305 78 128 2.6 7.0 0.00 0.30 0.30 65 1009.8
20260508212244 78 128 2.6 7.0 0.00 0.30 0.30 65 1009.8
20260508211313 76 100 2.6 5.2 0.00 0.30 0.30 68 1010.7
20260508210251 76 83 0.9 5.2 0.00 0.30 0.30 66 1011.0
20260508205310 77 105 0.9 6.1 0.00 0.30 0.30 65 1011.1
20260508204249 77 153 0.9 6.1 0.00 0.30 0.30 64 1011.1
20260508203247 78 154 0.9 2.6 0.00 0.30 0.30 64 1011.1
20260508202246 78 172 0.9 4.3 0.00 0.30 0.30 63 1011.2
20260508201245 79 209 0.9 4.3 0.00 0.30 0.30 62 1011.3
20260508200253 79 94 3.5 7.8 0.00 0.30 0.30 63 1011.3
20260508195252 79 94 3.5 7.8 0.00 0.30 0.30 63 1011.3
20260508194330 78 128 4.3 5.2 0.00 0.30 0.30 63 1011.5
20260508193249 79 125 4.3 9.6 0.00 0.30 0.30 63 1011.7
20260508192308 78 124 5.2 9.6 0.00 0.30 0.30 63 1011.7
20260508191327 78 123 6.1 7.8 0.00 0.30 0.30 63 1011.8
20260508190306 77 105 0.9 7.8 0.00 0.30 0.30 63 1011.8
20260508185244 77 105 0.9 7.8 0.00 0.30 0.30 63 1011.8
20260508184253 78 114 3.5 6.1 0.00 0.30 0.30 64 1012.1
20260508183312 77 122 3.5 7.8 0.00 0.30 0.30 65 1012.4
20260508182250 77 121 2.6 7.8 0.00 0.30 0.30 66 1012.5
20260508181309 77 110 0.9 4.3 0.00 0.30 0.30 66 1012.7
20260508180248 75 0.0 1.7 0.00 0.30 0.30 63 1013.0
20260508175247 75 134 0.0 5.2 0.00 0.30 0.30 64 1013.0
20260508174245 75 134 0.9 5.2 0.00 0.30 0.30 66 1013.1
20260508173244 74 92 0.9 8.7 0.00 0.30 0.30 67 1013.7
20260508172252 74 92 0.9 8.7 0.00 0.30 0.30 67 1013.7
20260508171251 74 119 3.5 6.1 0.00 0.30 0.30 69 1013.9
20260508170250 73 145 2.6 6.1 0.00 0.30 0.30 68 1014.2
20260508165248 72 140 1.7 6.1 0.00 0.30 0.30 68 1014.3
20260508164247 71 107 0.9 2.6 0.00 0.30 0.30 68 1014.7
20260508163246 71 103 1.7 7.0 0.00 0.30 0.30 70 1014.8
20260508162244 71 117 1.7 7.0 0.00 0.30 0.30 70 1014.8
20260508161253 70 202 0.9 1.7 0.00 0.30 0.30 72 1014.8
20260508160252 68 127 0.9 5.2 0.00 0.30 0.30 72 1015.2
20260508155250 68 127 0.9 7.8 0.00 0.30 0.30 73 1015.1
20260508154250 68 0.0 7.8 0.00 0.30 0.30 74 1015.0
20260508153248 68 0.0 3.5 0.00 0.30 0.30 76 1015.3
20260508152247 68 0.0 3.5 0.00 0.30 0.30 76 1015.3
20260508151246 67 0.0 3.5 0.00 0.30 0.30 76 1015.2
20260508150304 66 129 2.6 3.5 0.00 0.30 0.30 81 1015.2
20260508145253 66 113 2.6 6.1 0.00 0.30 0.30 83 1015.2
20260508144252 65 89 3.5 6.1 0.00 0.30 0.30 85 1015.4
20260508143250 64 165 0.9 3.5 0.00 0.30 0.30 87 1015.4
20260508142249 64 136 1.7 3.5 0.00 0.30 0.30 87 1015.4
20260508141248 63 117 2.6 2.6 0.01 0.30 0.30 88 1015.4
20260508140307 63 126 0.9 2.6 0.01 0.30 0.30 89 1015.2
20260508135306 63 127 0.9 2.6 0.01 0.30 0.30 89 1015.3
20260508134244 62 129 0.9 1.7 0.01 0.30 0.30 89 1015.4
20260508133253 62 0.0 0.9 0.02 0.30 0.30 89 1015.3
20260508132251 62 161 0.0 0.9 0.02 0.30 0.30 89 1015.4
20260508131250 62 161 0.9 0.9 0.04 0.29 0.29 89 1015.7
20260508130249 61 161 0.9 0.9 0.04 0.29 0.29 89 1015.5
20260508125247 61 161 0.9 1.7 0.04 0.29 0.29 89 1015.6
20260508124246 61 161 0.9 1.7 0.04 0.29 0.29 89 1015.6
20260508123245 61 161 0.9 0.9 0.04 0.28 0.28 89 1015.5
20260508122244 61 138 1.7 2.6 0.04 0.28 0.28 89 1015.6
20260508121252 61 123 2.6 2.6 0.02 0.25 0.25 89 1015.7
20260508120311 61 103 1.7 5.2 0.03 0.25 0.25 89 1015.5
20260508115310 61 103 1.7 5.2 0.03 0.25 0.25 89 1015.5
20260508114249 61 0.0 0.0 0.04 0.25 0.25 89 1015.6
20260508113308 62 128 0.9 3.5 0.06 0.24 0.24 89 1015.3
20260508112246 62 128 0.9 3.5 0.06 0.24 0.24 89 1015.5
20260508111245 61 0.0 1.7 0.05 0.23 0.23 89 1016.1
20260508110303 61 140 2.6 3.5 0.04 0.22 0.22 89 1015.6
20260508105313 61 140 2.6 3.5 0.04 0.22 0.22 89 1015.6
20260508104251 61 0.0 0.9 0.03 0.21 0.21 89 1014.8
20260508103310 61 146 1.7 1.7 0.00 0.18 0.18 89 1014.5
20260508102309 61 146 0.9 1.7 0.00 0.18 0.18 89 1014.4
20260508101248 61 0.0 1.7 0.01 0.18 0.18 89 1014.3
20260508100246 61 0.0 2.6 0.01 0.18 0.18 88 1014.5
20260508095307 61 0.0 2.6 0.01 0.18 0.18 88 1014.5
20260508094244 61 0.0 0.9 0.04 0.18 0.18 88 1014.7
20260508093333 62 169 1.7 1.7 0.05 0.18 0.18 88 1014.5
20260508092313 62 169 0.9 1.7 0.05 0.18 0.18 88 1014.8
20260508091250 62 0.0 0.0 0.17 0.17 0.17 88 1015.3
20260508090249 62 0.0 0.9 0.17 0.17 0.17 86 1014.9
20260508085248 62 153 0.0 1.7 0.17 0.17 0.17 86 1015.1
20260508084246 62 153 0.9 1.7 0.14 0.14 0.14 85 1015.3
20260508083245 63 0.0 0.9 0.13 0.13 0.13 82 1015.5
20260508082244 63 0.0 0.9 0.13 0.13 0.13 82 1015.8
20260508081252 63 0.0 0.9 0.00 0.00 0.00 81 1016.4
20260508080251 62 110 0.9 0.9 0.00 0.00 0.00 82 1016.2
20260508075250 62 110 0.9 1.7 0.00 0.00 0.00 82 1016.1
20260508074249 62 0.0 1.7 0.00 0.00 0.00 82 1015.7
20260508073248 62 0.0 0.0 0.00 0.00 0.00 81 1016.0
20260508072246 62 0.0 0.9 0.00 0.00 0.00 81 1016.0
20260508071245 62 0.0 0.9 0.00 0.00 0.00 81 1015.9
20260508070304 62 0.0 0.0 0.00 0.00 0.00 81 1016.5